Temp
60 61 61 62 62 62 63 63 63 64 64 63 65 68 69 69 67 67 68 69 69 69 70 70 71 71 71 71 71 71 71 71 71 71 69 68 69 70 68 68 68 67 63 63 62 60 60 58 57 55 50 40
59 59 60 60 60 61 61 61 62 62 62 63 62 62 61 62 64 64 66 67 68 69 70 69 70 70 70 71 71 71 71 70 71 71 70 69 68 69 67 67 68 67 66 63 62 60 59 58 57 55 52 37
55 58 58 59 59 59 59 59 60 60 60 61 60 59 59 58 59 61 63 64 65 67 69 68 68 70 70 70 71 70 70 70 70 71 70 69 68 67 68 67 67 67 65 63 61 60 59 57 56 56 48 39
54 56 57 58 58 58 57 58 58 58 57 57 57 57 58 57 56 57 58 63 61 63 66 65 65 67 70 69 69 70 70 69 69 69 70 69 68 67 67 66 67 66 65 62 61 60 59 57 57 49 40 39
53 54 56 55 56 57 57 57 56 56 55 55 54 55 55 55 54 54 55 56 56 61 59 60 61 66 69 69 69 69 69 69 69 69 69 69 68 67 65 65 64 64 64 62 61 60 58 57 47 42 41 41
51 52 55 54 54 54 55 55 55 53 52 53 51 53 53 53 53 53 53 53 55 55 56 57 59 61 65 68 69 69 69 67 68 69 69 69 68 67 65 64 60 61 62 61 60 58 57 48 41 41 40 40
50 51 52 53 53 53 54 53 53 53 53 51 51 51 51 52 52 53 53 53 54 55 56 57 58 60 63 65 68 68 67 66 68 69 69 69 68 67 64 60 53 56 56 57 59 58 50 41 41 39 39 40
48 49 50 51 52 52 52 52 52 52 52 52 51 51 51 50 50 51 52 54 54 54 54 55 56 58 61 63 65 65 64 64 65 66 66 66 65 64 59 53 52 54 53 54 52 47 43 42 40 40 39 39
46 46 46 48 50 50 50 50 51 51 51 51 51 51 52 51 51 50 50 52 53 53 53 52 52 53 54 56 58 61 57 57 56 59 52 51 53 55 54 50 51 51 50 47 44 41 39 40 39 39 39 35
45 45 44 45 47 47 48 48 49 49 49 49 50 50 51 52 50 49 50 49 51 52 52 52 51 51 51 51 53 58 56 51 52 52 49 49 46 49 52 51 49 50 49 42 39 38 37 39 40 38 36 36
43 42 42 42 45 46 44 45 45 46 46 47 48 48 50 49 49 48 48 49 49 49 51 51 51 51 50 50 50 51 54 52 51 49 47 44 44 47 45 44 47 50 47 44 40 38 37 37 38 38 37 35
43 41 42 44 45 43 46 45 43 42 43 44 45 45 46 48 48 48 47 48 48 48 49 50 50 50 49 49 49 50 50 50 48 47 46 40 42 42 44 45 45 44 44 43 41 38 38 37 38 38 37 37
42 42 42 42 43 43 47 43 42 41 42 42 43 43 43 44 44 46 47 47 47 47 48 48 49 50 50 49 49 49 48 49 48 46 45 44 41 44 44 44 43 41 41 43 41 40 37 37 37 37 36 36
42 42 41 42 43 43 44 41 41 41 40 41 40 41 41 42 42 42 42 44 46 46 45 45 48 49 49 50 49 49 48 48 48 47 42 41 39 41 43 42 42 42 41 40 39 40 38 37 37 37 37 36
42 42 41 42 42 42 43 42 42 40 40 40 40 40 40 40 41 42 41 41 43 43 44 44 45 46 47 48 49 49 48 46 46 44 45 44 42 43 43 42 41 42 40 40 38 40 38 38 36 36 35 35
41 41 41 42 41 42 41 41 40 39 39 40 39 40 39 40 39 41 40 40 41 42 42 42 43 43 45 46 48 49 48 48 45 45 44 42 42 41 42 41 40 40 40 40 38 39 37 36 36 36 35 35
40 40 40 40 41 41 42 41 40 39 40 39 39 39 39 39 39 41 39 39 39 41 40 41 41 41 43 44 46 46 47 46 45 42 42 42 42 40 39 40 39 39 40 41 39 38 38 36 36 36 35 35
39 39 40 41 40 41 40 40 39 40 40 39 40 39 38 38 39 39 39 38 38 38 39 40 40 40 41 42 44 45 45 43 42 42 42 42 40 41 39 39 39 38 38 39 38 38 38 36 37 36 35 35
39 40 39 39 39 40 40 40 39 39 39 39 40 40 38 39 39 38 38 38 38 37 37 38 38 39 40 41 41 40 41 42 40 41 41 44 40 40 39 39 38 39 40 38 37 37 37 37 36 35 35 35
37 38 38 38 41 39 39 39 39 39 39 39 39 39 39 38 38 39 37 37 37 37 36 37 37 38 40 39 38 37 37 40 41 43 43 41 41 41 39 39 39 38 39 39 39 37 37 37 37 35 35 34
35 37 37 38 37 37 38 38 38 39 39 39 39 40 39 39 39 38 38 37 36 36 37 36 37 37 38 39 36 34 34 37 40 42 43 43 40 42 42 40 39 38 39 40 40 38 37 37 37 35 35 35
36 36 36 36 36 37 37 37 37 37 37 38 38 38 38 39 38 39 37 37 37 36 37 37 36 36 37 37 33 33 32 36 35 37 39 39 40 39 40 40 40 40 39 40 40 38 37 36 36 37 36 36
35 35 34 32 35 35 35 35 36 37 36 37 37 37 38 38 39 39 38 37 37 36 36 36 35 36 35 35 32 31 31 33 33 35 35 37 38 40 39 40 41 41 41 41 41 39 38 37 36 37 36 36
32 32 32 32 32 32 34 35 36 37 36 37 36 38 38 38 38 38 39 38 37 36 37 35 35 36 33 31 31 31 31 32 33 33 35 36 37 37 38 39 40 40 40 40 39 38 37 36 36 35 35 34
32 30 30 29 31 32 32 34 37 36 36 36 37 37 37 37 38 37 37 38 37 36 37 37 35 34 32 31 32 31 31 31 31 32 33 36 38 37 37 37 38 39 38 38 36 35 35 34 34 35 35 33
32 31 32 31 31 31 32 33 33 34 36 36 38 38 37 37 36 36 36 37 36 37 35 35 35 33 32 31 31 31 32 32 34 32 32 35 35 36 36 36 37 38 38 36 37 35 33 32 33 33 34 33
33 32 32 32 32 32 32 33 34 34 35 36 35 36 36 35 34 34 35 35 35 35 35 35 34 34 32 31 32 31 30 30 30 30 31 32 33 34 35 36 37 36 38 37 38 39 37 34 32 33 31 33
35 33 34 32 33 33 32 32 35 34 33 33 33 33 35 33 34 34 34 34 34 35 35 35 34 35 32 31 31 31 31 30 30 30 30 31 32 34 33 34 35 36 37 38 37 34 35 34 35 35 33 34
33 33 32 31 31 30 30 29 28 27 29 32 33 34 31 34 35 34 34 34 35 36 35 35 34 33 33 31 31 31 30 30 31 31 31 32 32 33 34 34 34 35 35 36 38 37 33 29 31 34 38 36
33 33 32 30 29 28 28 28 29 29 30 31 31 32 34 33 34 34 33 34 34 35 35 34 33 32 32 31 32 31 31 31 30 30 31 32 33 34 34 34 35 34 36 35 36 36 37 37 33 34 33 35
33 31 31 30 29 28 28 27 29 32 33 32 32 32 31 32 33 33 34 35 35 34 34 33 31 30 31 31 31 32 30 30 30 31 31 33 32 33 35 34 33 34 34 34 34 36 36 36 34 33 33 33
MSLP
1018.85 1018.81 1018.65 1018.41 1018.29 1018.13 1018.01 1017.89 1017.89 1017.81 1017.93 1017.89 1017.65 1017.29 1017.13 1017.21 1017.29 1017.21 1017.21 1017.21 1017.37 1017.37 1017.25 1017.29 1017.29 1017.33 1017.41 1017.49 1017.77 1017.93 1017.97 1018.01 1017.97 1017.97 1018.29 1018.57 1018.53 1018.57 1018.81 1018.97 1019.09 1019.33 1019.85 1020.05 1020.37 1020.61 1020.97 1021.17 1021.45 1021.89 1022.25 1022.29
1019.41 1019.21 1019.01 1018.85 1018.73 1018.69 1018.61 1018.41 1018.29 1018.17 1018.05 1017.93 1017.97 1017.89 1017.85 1017.65 1017.45 1017.33 1017.17 1017.13 1017.21 1017.17 1017.21 1017.29 1017.33 1017.45 1017.49 1017.53 1017.57 1017.77 1017.97 1018.01 1017.97 1017.93 1018.21 1018.41 1018.49 1018.57 1018.85 1019.01 1018.97 1019.17 1019.61 1020.09 1020.37 1020.61 1020.89 1021.17 1021.37 1021.81 1022.17 1022.41
1019.85 1019.53 1019.41 1019.25 1019.09 1019.17 1018.97 1018.81 1018.69 1018.53 1018.41 1018.21 1018.21 1018.29 1018.09 1018.01 1017.97 1017.73 1017.33 1017.13 1017.17 1017.29 1017.21 1017.21 1017.33 1017.33 1017.37 1017.49 1017.53 1017.69 1017.89 1017.97 1017.93 1017.85 1018.13 1018.33 1018.53 1018.65 1018.69 1018.89 1018.89 1019.01 1019.53 1019.97 1020.41 1020.65 1020.85 1021.21 1021.33 1021.65 1022.17 1022.45
1020.17 1019.89 1019.77 1019.65 1019.61 1019.61 1019.53 1019.21 1019.09 1018.89 1018.89 1018.65 1018.53 1018.45 1018.29 1018.21 1018.17 1018.05 1017.85 1017.45 1017.13 1017.13 1017.13 1017.09 1017.21 1017.17 1017.17 1017.29 1017.49 1017.57 1017.73 1017.89 1018.01 1017.97 1017.93 1018.29 1018.41 1018.65 1018.61 1018.77 1018.93 1018.97 1019.37 1019.89 1020.33 1020.73 1020.89 1021.25 1021.29 1021.69 1022.17 1022.37
1020.57 1020.41 1020.13 1020.01 1019.93 1019.89 1019.81 1019.69 1019.57 1019.33 1019.21 1018.97 1018.93 1018.85 1018.69 1018.45 1018.49 1018.45 1018.29 1017.97 1017.69 1017.37 1017.21 1017.21 1017.21 1017.25 1017.05 1017.09 1017.29 1017.45 1017.57 1017.73 1017.81 1017.89 1017.89 1018.09 1018.25 1018.53 1018.69 1018.85 1019.01 1019.01 1019.29 1019.69 1020.13 1020.65 1021.01 1021.29 1021.65 1021.81 1022.09 1022.33
1021.09 1020.85 1020.61 1020.57 1020.41 1020.25 1020.17 1020.01 1019.89 1019.81 1019.65 1019.45 1019.29 1019.25 1019.17 1019.05 1018.93 1018.77 1018.61 1018.41 1018.17 1017.89 1017.61 1017.45 1017.37 1017.33 1017.21 1017.13 1017.05 1017.21 1017.41 1017.61 1017.73 1017.73 1017.73 1017.85 1018.09 1018.37 1018.69 1018.85 1019.01 1019.09 1019.21 1019.49 1019.85 1020.49 1020.97 1021.49 1021.85 1021.93 1022.05 1022.21
1021.29 1021.17 1021.05 1020.89 1020.77 1020.57 1020.33 1020.21 1020.05 1019.93 1019.89 1019.85 1019.85 1019.85 1019.77 1019.61 1019.33 1019.09 1018.89 1018.69 1018.53 1018.33 1018.09 1017.77 1017.57 1017.41 1017.29 1017.33 1017.01 1017.01 1017.17 1017.41 1017.53 1017.57 1017.57 1017.65 1017.93 1018.13 1018.57 1018.89 1019.29 1019.29 1019.41 1019.69 1019.85 1020.21 1020.97 1021.57 1021.81 1021.93 1022.09 1022.13
1021.61 1021.49 1021.41 1021.21 1020.97 1020.77 1020.65 1020.45 1020.33 1020.21 1020.21 1020.17 1020.17 1020.13 1019.97 1019.85 1019.77 1019.45 1019.09 1018.85 1018.65 1018.45 1018.29 1018.17 1018.01 1017.97 1017.49 1017.21 1016.97 1016.81 1017.01 1017.17 1017.29 1017.45 1017.61 1017.69 1017.85 1017.97 1018.33 1018.89 1019.25 1019.29 1019.49 1019.69 1020.01 1020.17 1020.65 1021.29 1021.61 1021.73 1021.93 1022.05
1021.85 1021.73 1021.61 1021.45 1021.29 1021.09 1020.89 1020.73 1020.65 1020.61 1020.53 1020.45 1020.41 1020.33 1020.21 1020.09 1019.85 1019.69 1019.49 1019.21 1018.93 1018.81 1018.69 1018.53 1018.37 1018.29 1018.05 1017.65 1017.25 1016.97 1016.93 1017.05 1017.17 1017.33 1017.53 1017.85 1018.05 1018.05 1018.37 1018.85 1019.29 1019.45 1019.69 1019.97 1020.37 1020.73 1020.77 1021.05 1021.45 1021.69 1021.89 1022.05
1022.25 1022.05 1021.85 1021.61 1021.45 1021.33 1021.17 1020.93 1020.77 1020.65 1020.61 1020.53 1020.49 1020.45 1020.41 1020.29 1020.13 1019.93 1019.73 1019.53 1019.29 1019.09 1018.97 1018.85 1018.65 1018.45 1018.37 1018.21 1017.97 1017.29 1016.89 1016.93 1017.05 1017.25 1017.37 1017.65 1017.97 1018.13 1018.33 1018.65 1019.01 1019.41 1019.57 1020.13 1020.53 1020.89 1021.13 1021.13 1021.29 1021.61 1021.81 1022.01
1022.37 1022.29 1022.17 1022.01 1021.77 1021.57 1021.41 1021.21 1021.01 1020.77 1020.61 1020.57 1020.57 1020.53 1020.45 1020.45 1020.41 1020.33 1020.25 1020.01 1019.69 1019.45 1019.25 1019.05 1018.89 1018.73 1018.57 1018.41 1018.33 1018.25 1017.65 1017.01 1016.89 1016.97 1017.33 1017.53 1017.85 1018.09 1018.37 1018.73 1019.01 1019.17 1019.53 1019.85 1020.29 1020.77 1021.05 1021.21 1021.29 1021.49 1021.73 1021.93
1022.29 1022.25 1022.17 1022.01 1021.89 1021.89 1021.73 1021.49 1021.33 1021.17 1020.93 1020.69 1020.53 1020.53 1020.57 1020.57 1020.61 1020.57 1020.45 1020.29 1020.13 1019.89 1019.57 1019.25 1019.01 1018.85 1018.65 1018.45 1018.41 1018.29 1018.37 1018.09 1017.01 1016.81 1017.09 1017.49 1017.81 1018.01 1018.29 1018.65 1019.05 1019.29 1019.49 1019.81 1020.09 1020.49 1020.93 1021.13 1021.29 1021.41 1021.61 1021.77
1022.45 1022.25 1022.17 1022.01 1021.81 1021.77 1021.65 1021.65 1021.49 1021.29 1021.09 1020.85 1020.65 1020.49 1020.49 1020.49 1020.53 1020.53 1020.53 1020.45 1020.33 1020.13 1019.93 1019.61 1019.29 1018.97 1018.65 1018.49 1018.41 1018.41 1018.21 1018.25 1018.25 1017.21 1016.81 1017.17 1017.49 1017.85 1018.13 1018.53 1018.89 1019.29 1019.65 1019.73 1019.97 1020.17 1020.57 1020.89 1021.09 1021.37 1021.57 1021.69
1022.53 1022.37 1022.29 1022.09 1021.93 1021.77 1021.61 1021.57 1021.45 1021.29 1021.09 1020.97 1020.73 1020.53 1020.45 1020.45 1020.53 1020.61 1020.65 1020.61 1020.41 1020.21 1020.05 1019.85 1019.49 1019.21 1018.93 1018.61 1018.37 1018.41 1018.29 1018.01 1018.01 1018.21 1017.65 1016.93 1017.33 1017.49 1017.97 1018.29 1018.57 1018.97 1019.37 1019.73 1019.93 1020.05 1020.25 1020.57 1020.77 1021.01 1021.25 1021.49
1022.65 1022.49 1022.41 1022.25 1022.05 1021.85 1021.65 1021.53 1021.45 1021.29 1021.05 1020.85 1020.69 1020.53 1020.41 1020.33 1020.41 1020.45 1020.53 1020.49 1020.45 1020.33 1020.13 1019.97 1019.77 1019.49 1019.17 1018.85 1018.53 1018.33 1018.21 1018.01 1017.97 1017.85 1018.01 1018.13 1017.29 1017.17 1017.57 1017.81 1018.21 1018.53 1019.05 1019.45 1019.85 1019.89 1020.05 1020.21 1020.61 1020.89 1021.13 1021.29
1022.69 1022.53 1022.41 1022.21 1022.09 1021.93 1021.81 1021.61 1021.41 1021.21 1020.97 1020.73 1020.57 1020.41 1020.25 1020.17 1020.21 1020.29 1020.33 1020.37 1020.33 1020.25 1020.09 1019.93 1019.77 1019.57 1019.37 1019.05 1018.85 1018.61 1018.37 1018.05 1017.93 1017.81 1017.61 1017.73 1018.45 1017.97 1016.89 1017.33 1017.93 1018.25 1018.61 1019.13 1019.33 1019.57 1019.81 1020.09 1020.33 1020.57 1020.89 1021.09
1022.89 1022.77 1022.65 1022.49 1022.29 1022.09 1021.81 1021.57 1021.33 1021.09 1020.77 1020.57 1020.45 1020.29 1020.13 1019.97 1020.01 1020.05 1020.09 1020.09 1020.13 1020.13 1020.01 1019.89 1019.69 1019.53 1019.37 1019.17 1018.89 1018.81 1018.61 1018.41 1018.09 1017.89 1017.61 1017.57 1017.85 1018.09 1018.53 1017.65 1017.73 1018.09 1018.37 1018.57 1019.01 1019.21 1019.41 1019.73 1019.97 1020.21 1020.57 1020.81
1022.89 1022.77 1022.61 1022.45 1022.33 1022.13 1021.89 1021.65 1021.41 1021.13 1020.81 1020.57 1020.33 1020.09 1019.93 1019.85 1019.85 1019.89 1019.89 1019.89 1019.89 1019.93 1019.89 1019.81 1019.65 1019.53 1019.33 1019.13 1018.97 1018.81 1018.69 1018.53 1018.37 1018.13 1017.81 1017.53 1017.49 1017.85 1018.29 1018.57 1017.81 1017.85 1018.25 1018.49 1018.77 1019.05 1019.17 1019.49 1019.61 1019.97 1020.29 1020.45
1022.73 1022.57 1022.45 1022.29 1022.17 1022.01 1021.89 1021.73 1021.53 1021.17 1020.89 1020.61 1020.29 1020.01 1019.77 1019.65 1019.65 1019.69 1019.73 1019.69 1019.65 1019.65 1019.69 1019.61 1019.53 1019.41 1019.25 1019.01 1018.85 1018.69 1018.61 1018.53 1018.45 1018.29 1018.05 1017.57 1017.61 1017.45 1017.77 1018.09 1018.53 1017.85 1017.37 1017.97 1018.53 1018.81 1019.09 1019.21 1019.45 1019.81 1019.89 1020.17
1022.53 1022.37 1022.29 1022.21 1022.05 1021.89 1021.81 1021.65 1021.45 1021.17 1020.93 1020.65 1020.37 1020.13 1019.81 1019.65 1019.53 1019.53 1019.57 1019.57 1019.53 1019.53 1019.45 1019.45 1019.33 1019.25 1019.09 1018.97 1018.77 1018.73 1018.53 1018.41 1018.29 1018.17 1017.97 1017.81 1017.73 1017.49 1017.45 1017.65 1017.89 1018.33 1017.85 1017.57 1017.81 1018.37 1018.73 1018.85 1019.17 1019.41 1019.73 1019.97
1022.33 1022.17 1022.05 1022.01 1021.97 1021.89 1021.77 1021.61 1021.37 1021.13 1020.89 1020.65 1020.41 1020.17 1020.01 1019.77 1019.65 1019.49 1019.45 1019.45 1019.45 1019.37 1019.29 1019.21 1019.13 1019.01 1018.93 1018.85 1018.77 1018.69 1018.61 1018.49 1018.33 1018.25 1017.97 1017.69 1017.65 1017.53 1017.13 1017.21 1017.41 1017.77 1018.09 1017.81 1017.37 1017.77 1018.17 1018.45 1018.69 1019.05 1019.21 1019.45
1022.33 1022.13 1022.01 1021.89 1021.85 1021.77 1021.69 1021.53 1021.37 1021.17 1020.85 1020.61 1020.33 1020.17 1020.01 1019.81 1019.73 1019.57 1019.45 1019.33 1019.25 1019.21 1019.09 1018.97 1018.89 1018.77 1018.77 1018.69 1018.65 1018.61 1018.61 1018.49 1018.41 1018.33 1018.17 1017.93 1017.65 1017.53 1017.37 1017.13 1017.05 1017.09 1017.53 1017.77 1017.85 1017.73 1017.81 1018.17 1018.41 1018.37 1018.65 1018.93
1022.49 1022.25 1022.09 1021.97 1021.89 1021.85 1021.77 1021.61 1021.41 1021.05 1020.73 1020.45 1020.21 1020.09 1019.93 1019.81 1019.69 1019.49 1019.33 1019.21 1019.09 1019.05 1018.89 1018.77 1018.65 1018.57 1018.53 1018.53 1018.45 1018.45 1018.37 1018.33 1018.29 1018.21 1018.21 1018.13 1017.73 1017.49 1017.33 1017.09 1016.89 1016.65 1016.53 1016.93 1017.37 1017.73 1017.73 1017.89 1018.05 1018.17 1018.45 1018.73
1022.57 1022.33 1022.09 1021.93 1021.89 1021.89 1021.73 1021.57 1021.33 1020.93 1020.65 1020.29 1020.09 1019.85 1019.73 1019.65 1019.57 1019.41 1019.21 1019.05 1018.93 1018.85 1018.73 1018.57 1018.45 1018.33 1018.33 1018.29 1018.25 1018.21 1018.13 1018.13 1018.05 1018.01 1018.01 1017.97 1017.81 1017.49 1017.25 1017.05 1016.93 1016.89 1016.93 1016.77 1016.77 1017.17 1017.77 1018.05 1018.17 1018.41 1018.53 1018.69
1022.49 1022.33 1022.05 1021.97 1021.89 1021.85 1021.69 1021.53 1021.13 1020.85 1020.45 1020.21 1019.97 1019.73 1019.61 1019.41 1019.29 1019.17 1019.01 1018.85 1018.77 1018.73 1018.57 1018.41 1018.25 1018.21 1018.13 1018.13 1018.09 1017.97 1017.97 1017.85 1017.85 1017.85 1017.85 1017.73 1017.65 1017.57 1017.29 1016.93 1016.69 1016.69 1016.89 1017.05 1017.25 1017.37 1017.53 1018.01 1018.33 1018.45 1018.65 1018.69
1022.53 1022.21 1021.97 1021.89 1021.81 1021.65 1021.57 1021.29 1021.05 1020.69 1020.37 1020.13 1019.89 1019.69 1019.49 1019.29 1019.09 1018.93 1018.81 1018.69 1018.57 1018.49 1018.45 1018.33 1018.17 1018.09 1017.97 1017.93 1017.85 1017.77 1017.69 1017.69 1017.65 1017.65 1017.61 1017.57 1017.45 1017.29 1017.17 1016.97 1016.57 1016.49 1016.77 1016.97 1016.77 1017.09 1017.37 1017.81 1018.21 1018.37 1018.53 1018.65
1022.33 1021.97 1021.77 1021.69 1021.53 1021.37 1021.21 1020.97 1020.77 1020.53 1020.29 1020.05 1019.89 1019.61 1019.37 1019.17 1019.09 1018.93 1018.69 1018.45 1018.37 1018.33 1018.25 1018.13 1018.05 1017.93 1017.81 1017.73 1017.65 1017.53 1017.49 1017.45 1017.45 1017.37 1017.33 1017.37 1017.41 1017.17 1016.97 1016.77 1016.53 1016.57 1016.45 1016.25 1016.17 1016.01 1016.21 1016.65 1017.61 1017.77 1018.33 1018.37
1022.05 1021.81 1021.57 1021.41 1021.21 1021.05 1020.97 1020.73 1020.45 1020.33 1020.13 1019.97 1019.73 1019.45 1019.13 1019.01 1018.85 1018.69 1018.57 1018.37 1018.21 1018.05 1017.93 1017.89 1017.81 1017.69 1017.65 1017.53 1017.49 1017.37 1017.25 1017.21 1017.17 1017.09 1017.09 1017.13 1017.17 1017.17 1017.01 1016.73 1016.37 1016.21 1016.29 1016.13 1016.05 1016.37 1016.05 1016.09 1015.77 1015.61 1016.41 1016.89
1022.21 1021.81 1021.45 1021.17 1020.93 1020.77 1020.57 1020.41 1020.33 1020.21 1020.05 1019.77 1019.41 1019.13 1018.93 1018.65 1018.49 1018.45 1018.33 1018.17 1017.93 1017.81 1017.69 1017.57 1017.53 1017.53 1017.45 1017.37 1017.33 1017.29 1017.17 1017.01 1016.85 1016.69 1016.73 1016.81 1016.93 1016.97 1016.93 1016.57 1016.41 1016.13 1016.17 1016.21 1015.85 1015.49 1015.93 1016.81 1016.45 1015.01 1013.89 1015.33
1022.69 1022.49 1022.09 1021.61 1021.21 1020.81 1020.53 1020.37 1020.09 1019.97 1019.73 1019.41 1019.29 1019.01 1018.57 1018.41 1018.33 1018.21 1018.09 1017.97 1017.77 1017.61 1017.49 1017.33 1017.29 1017.29 1017.29 1017.25 1017.17 1017.13 1017.05 1016.81 1016.73 1016.69 1016.57 1016.45 1016.45 1016.49 1016.57 1016.49 1016.29 1016.25 1016.05 1016.01 1015.93 1015.89 1015.37 1014.77 1014.69 1014.53 1015.05 1015.21
1022.85 1022.53 1022.25 1021.89 1021.57 1021.25 1020.65 1020.29 1019.93 1019.57 1019.37 1019.17 1018.85 1018.61 1018.45 1018.25 1018.05 1017.93 1017.77 1017.69 1017.57 1017.45 1017.25 1017.05 1017.01 1017.05 1017.09 1017.09 1017.05 1016.97 1016.93 1016.89 1016.69 1016.41 1016.17 1016.09 1016.21 1016.21 1016.17 1016.29 1016.37 1016.13 1015.97 1015.93 1015.97 1015.89 1015.81 1015.73 1015.73 1015.73 1015.21 1015.09
Wind_Speed
23 23 23 24 25 25 24 23 20 17 18 19 18 16 15 11 9 8 8 11 14 17 14 14 13 12 12 12 13 13 13 14 16 14 13 14 16 12 12 13 14 15 19 18 17 17 16 15 14 11 6 2
22 22 23 23 23 23 23 23 22 22 23 22 22 22 20 22 16 9 6 7 15 17 14 13 13 14 13 13 12 13 14 15 17 17 12 14 14 15 15 17 16 14 17 17 18 17 16 15 16 13 9 3
14 23 22 22 22 22 23 23 23 23 24 23 22 22 21 18 19 15 10 6 6 13 16 12 12 15 14 15 13 12 13 15 16 17 14 15 13 17 14 14 15 16 18 18 17 17 17 16 16 16 8 4
13 17 21 21 20 20 20 21 22 23 21 21 23 24 23 19 14 14 12 13 6 6 7 10 10 8 15 15 15 14 13 15 17 18 17 13 15 17 17 17 16 13 18 19 18 16 17 15 16 9 6 5
12 13 18 15 18 19 19 18 19 20 18 18 17 19 19 16 12 11 10 11 9 8 5 7 7 9 15 16 16 15 15 16 15 17 18 16 14 16 14 11 11 11 20 21 18 17 15 15 7 7 7 6
9 10 13 12 12 11 12 13 12 10 11 13 12 17 14 12 11 10 9 10 10 9 7 6 8 9 12 16 17 16 16 13 16 17 17 17 13 14 16 12 7 8 17 20 19 17 17 8 6 6 7 7
9 11 10 11 10 9 12 12 12 10 10 9 10 10 10 11 11 11 9 10 11 10 12 11 9 10 13 17 18 16 13 13 15 17 18 16 13 12 13 5 3 6 8 9 19 18 10 7 6 7 6 6
8 9 8 9 9 9 9 9 9 10 10 8 9 9 8 8 10 11 10 10 13 12 9 9 12 14 14 18 18 16 10 12 12 10 9 13 8 10 5 3 3 6 8 8 7 7 9 8 8 8 7 7
8 8 7 8 8 8 8 8 8 7 8 8 9 9 8 8 9 9 9 10 9 9 8 8 8 7 8 7 6 11 7 7 6 6 3 3 1 2 6 7 6 5 7 6 7 6 7 8 7 6 6 6
6 7 7 9 9 8 8 7 8 7 7 7 8 8 8 8 8 9 9 10 11 9 8 8 7 7 6 7 9 8 7 7 8 6 5 4 1 4 6 7 8 7 8 8 7 7 5 6 7 7 6 6
6 6 5 6 7 9 8 7 8 8 7 6 7 7 8 8 8 8 7 8 10 10 9 8 7 7 6 6 7 9 9 7 8 8 7 5 4 6 6 5 7 8 8 9 10 7 7 6 7 7 6 6
8 5 6 6 6 6 7 7 7 6 6 6 6 5 6 6 6 7 7 8 8 9 9 9 9 8 7 7 6 5 6 10 7 8 8 6 5 6 7 8 7 6 8 9 9 10 8 7 7 7 7 7
7 7 7 6 7 7 6 6 6 5 5 6 5 5 5 6 7 7 7 7 8 7 8 9 9 8 8 7 7 5 7 6 9 7 8 8 7 7 7 7 8 7 6 7 8 10 9 9 8 7 6 7
8 8 7 8 8 8 7 7 6 4 5 4 3 5 4 4 4 5 5 6 6 7 8 8 9 9 9 9 7 6 7 6 6 8 8 6 6 8 8 9 9 9 9 8 8 8 10 9 9 9 8 8
8 7 8 8 8 8 9 8 6 5 4 4 3 3 3 3 3 4 4 4 5 5 6 7 7 8 8 8 8 8 7 6 6 6 6 7 6 9 8 10 9 10 9 9 8 8 9 10 8 8 7 7
8 8 8 8 7 8 8 7 7 6 5 4 3 3 3 2 2 2 3 3 4 4 5 5 6 7 7 8 8 8 8 9 6 6 7 3 6 6 8 10 9 9 10 10 10 9 10 8 9 8 8 8
7 7 7 8 8 8 8 8 7 7 7 6 4 3 2 2 3 2 2 2 3 4 4 4 5 6 6 7 7 8 8 9 9 6 7 6 2 2 7 3 8 8 8 10 10 10 10 9 9 8 8 8
5 6 5 6 7 8 9 8 8 8 8 7 6 4 4 3 2 3 3 2 3 3 4 4 4 5 6 6 6 7 7 8 6 8 8 8 4 4 3 6 7 10 9 8 8 9 9 8 9 9 8 9
5 5 5 6 6 6 7 8 7 8 8 8 7 7 6 4 4 4 4 3 3 3 3 4 4 4 5 6 7 6 6 6 6 5 8 8 5 6 6 6 5 7 11 10 10 10 8 9 8 7 9 8
5 5 5 5 6 7 7 7 7 7 7 7 7 8 7 5 4 4 4 4 4 4 3 4 4 5 5 5 6 6 6 6 7 6 7 7 6 7 7 7 7 6 8 10 12 10 10 9 9 9 8 9
5 5 5 5 5 6 6 7 7 7 7 7 7 7 7 7 6 5 5 5 4 4 4 4 4 5 4 5 6 5 5 6 5 7 7 7 5 8 8 9 9 7 7 8 11 10 11 10 10 9 10 10
6 5 5 5 6 6 7 7 6 6 6 6 6 6 7 7 7 6 6 5 5 5 5 4 4 4 4 5 4 4 4 5 4 4 5 7 6 5 7 7 9 11 9 8 7 8 11 10 9 10 10 9
5 5 4 4 5 5 6 6 6 7 6 6 6 6 7 7 7 7 7 7 6 6 6 5 4 4 4 4 4 4 4 5 4 4 3 5 7 6 6 8 8 10 12 12 9 9 9 8 10 8 7 7
6 5 5 5 4 4 6 6 6 6 6 7 6 7 7 7 7 7 8 7 7 6 6 6 5 4 4 4 4 4 4 6 5 5 5 4 5 7 6 6 7 6 7 8 10 9 5 5 5 5 6 6
5 4 4 2 3 6 5 6 6 6 7 6 7 7 7 7 7 7 7 7 7 7 7 6 5 4 4 5 5 4 5 5 5 4 4 4 4 5 6 5 5 6 4 7 5 2 5 4 2 3 4 7
5 4 3 4 5 5 6 6 6 7 6 7 7 8 9 8 7 7 6 7 6 7 6 7 6 5 6 5 6 5 5 4 4 4 4 3 5 3 4 5 3 5 4 5 9 8 5 4 1 2 4 6
7 4 3 3 4 5 5 4 6 6 6 7 7 8 9 8 6 7 7 7 6 5 6 6 6 7 7 5 5 5 5 5 5 4 4 4 3 6 3 5 4 4 7 7 8 9 6 8 6 4 3 6
7 6 5 5 5 6 5 7 7 6 7 7 7 8 8 5 6 6 7 6 6 6 7 7 7 7 7 7 6 6 6 5 6 5 4 4 4 3 6 3 3 3 6 8 6 7 8 2 8 11 13 12
9 7 7 6 6 5 6 4 5 5 5 7 7 7 5 7 5 6 7 6 6 7 8 7 6 6 7 6 6 5 6 5 7 7 5 4 4 4 5 7 3 3 4 7 7 5 4 2 2 9 8 12
12 12 12 10 8 8 7 8 8 8 9 8 7 8 7 5 6 6 6 6 7 8 7 6 6 5 5 6 7 6 6 7 5 4 5 7 7 6 4 6 7 5 3 5 8 7 5 0 2 3 1 6
12 12 11 12 11 10 9 8 7 8 9 9 8 5 5 6 5 4 5 7 7 7 7 5 4 4 4 5 6 6 5 6 7 7 7 7 5 7 6 4 5 7 5 3 4 7 9 8 2 2 3 7
Wind_Direction
25 24 26 29 27 24 24 20 13 6 355 346 334 326 320 317 333 326 291 284 275 259 247 243 239 229 223 222 235 240 252 254 258 253 217 231 239 209 208 206 196 187 159 154 148 145 144 141 136 137 131 111
20 24 25 26 28 22 21 23 21 19 14 9 7 359 358 345 333 328 317 279 264 267 258 255 245 239 238 230 225 236 240 253 255 252 229 225 235 229 204 215 203 199 179 158 151 147 145 145 140 141 136 121
13 22 24 25 27 23 18 19 19 21 16 14 11 6 1 357 346 324 318 312 292 263 253 242 245 238 234 237 229 229 238 249 253 253 240 226 226 232 213 216 209 192 170 164 153 152 149 149 143 143 133 137
15 16 21 21 23 24 21 18 18 20 15 15 12 6 4 3 357 343 324 311 311 314 283 259 247 222 226 230 233 228 231 239 248 260 257 237 225 230 218 214 214 191 176 166 158 157 153 153 146 135 139 146
14 12 16 15 14 17 19 21 19 15 15 19 13 6 2 3 1 350 341 328 316 303 300 282 274 249 231 227 229 234 230 235 245 249 256 255 232 232 245 203 208 179 177 170 158 159 152 149 124 137 140 153
11 9 13 12 10 7 11 13 17 22 18 13 15 10 3 2 359 351 347 338 329 314 306 286 259 256 255 232 225 227 230 224 235 248 254 255 241 230 229 204 190 184 167 166 160 154 149 128 141 143 151 153
10 9 7 7 6 4 7 7 10 14 15 15 16 13 13 4 354 352 348 347 337 329 309 296 269 245 251 248 227 222 226 222 225 236 251 255 249 226 226 232 156 184 158 161 158 149 136 144 153 151 154 159
7 9 4 360 360 2 3 4 6 8 9 10 13 10 9 9 3 351 350 346 345 346 339 319 316 301 262 238 230 216 219 219 216 223 256 276 281 225 177 177 171 155 158 159 154 146 145 151 158 159 166 165
359 3 0 1 356 359 356 359 3 4 3 6 7 7 8 6 1 2 352 347 346 347 341 330 319 305 297 295 264 229 215 206 211 205 209 279 7 179 148 138 158 149 145 130 132 144 150 151 157 159 161 163
347 360 359 358 355 354 349 350 352 357 3 3 5 6 7 3 4 360 356 350 345 345 343 334 325 318 314 305 297 267 222 209 199 206 206 202 116 135 152 157 156 167 152 144 146 148 157 157 159 162 162 166
348 353 351 352 352 350 343 347 348 348 352 360 3 7 6 7 2 359 357 348 346 344 338 333 326 317 309 301 297 303 285 228 205 198 200 182 157 148 143 150 162 165 157 156 157 158 163 169 164 164 167 170
348 341 346 347 355 347 328 340 338 339 341 344 360 6 12 9 5 358 354 352 347 341 338 334 327 317 309 298 293 299 308 297 241 199 197 171 156 147 158 158 170 166 162 162 161 160 169 170 171 172 174 174
341 339 339 341 345 341 333 331 322 321 330 343 342 3 13 9 4 1 356 351 345 338 339 334 332 324 318 311 300 299 296 285 294 258 195 183 169 168 161 164 166 165 172 170 169 167 168 173 173 174 174 177
341 340 338 335 336 331 330 321 314 318 327 319 341 347 8 17 16 360 348 343 339 343 337 336 334 333 325 318 311 297 274 280 275 290 281 193 172 167 168 169 176 169 173 176 176 174 170 174 179 177 175 178
339 337 335 328 330 329 326 317 310 303 301 311 322 329 356 16 17 352 348 337 333 333 334 334 335 334 330 325 321 311 291 275 263 265 269 280 211 179 175 181 175 173 174 173 181 182 176 178 171 178 180 177
337 336 329 327 329 325 314 310 301 298 292 289 288 301 339 3 5 343 333 328 327 324 327 330 331 329 333 332 330 329 312 300 278 256 259 236 303 292 193 169 174 179 170 180 185 182 184 175 176 179 178 178
331 328 327 325 323 317 317 314 308 303 303 298 285 280 294 327 331 315 308 304 308 312 312 315 320 327 325 324 329 329 324 312 298 284 267 264 217 263 303 209 173 175 184 182 186 186 187 175 184 181 174 180
325 320 320 321 321 319 319 313 310 301 299 295 293 288 293 294 287 288 271 259 278 283 299 301 304 310 315 312 319 320 326 322 312 291 275 262 210 212 216 254 202 173 187 199 183 191 186 182 185 177 181 182
314 316 319 320 318 318 316 311 305 299 298 292 285 291 292 287 278 271 274 265 257 268 278 290 299 299 294 306 310 319 319 317 309 294 284 271 238 221 192 221 260 217 188 181 185 194 185 192 184 181 187 182
300 302 307 312 314 318 316 313 310 309 304 302 303 301 297 286 271 273 272 274 267 270 260 266 276 284 290 296 307 314 318 324 318 307 290 271 251 234 220 205 218 232 225 192 192 184 190 193 183 186 182 185
285 290 299 303 302 305 309 310 311 311 313 313 310 307 304 296 288 281 276 272 267 259 268 265 261 272 281 290 300 310 312 316 315 315 302 294 262 243 236 211 211 212 228 227 203 185 191 191 186 186 189 188
282 289 298 304 308 309 311 307 302 301 307 306 307 313 306 298 295 289 283 276 271 262 255 250 258 262 276 283 294 300 313 301 311 305 302 298 290 256 249 236 215 208 212 225 231 205 195 193 193 196 190 189
289 293 293 291 299 307 304 303 301 304 309 304 307 307 300 302 297 292 284 280 272 265 263 263 259 264 264 275 276 295 304 307 310 309 290 286 295 283 252 248 236 225 208 207 211 220 215 194 201 201 196 185
297 295 287 296 309 316 297 292 298 295 294 299 304 297 300 296 292 287 286 282 280 268 263 261 259 261 261 260 264 283 291 299 304 306 314 298 281 290 283 252 254 253 242 223 205 208 210 208 200 204 195 193
288 291 295 282 269 280 271 280 286 287 289 296 293 293 292 293 288 286 285 285 283 275 270 266 265 255 262 255 251 245 255 253 273 276 273 285 283 280 286 282 241 245 221 221 226 161 177 184 149 196 194 212
287 262 255 270 273 273 282 293 292 293 293 292 293 293 290 284 282 286 283 283 282 280 273 277 275 261 250 252 245 237 241 258 261 287 298 290 300 235 257 275 255 238 172 221 213 198 213 209 118 166 202 220
282 268 276 279 280 288 289 266 272 280 279 282 283 283 283 282 287 284 287 285 284 280 279 273 273 267 254 246 240 248 257 251 267 262 273 281 264 299 255 255 262 245 205 221 215 228 210 208 209 216 223 231
287 276 280 280 276 288 279 284 289 285 288 286 280 280 270 273 270 276 278 277 279 280 279 275 270 268 264 249 238 231 238 244 246 256 265 266 259 245 296 279 271 201 222 223 193 226 216 216 209 217 224 219
295 298 302 300 304 300 302 291 287 287 282 271 275 276 283 274 281 284 275 274 278 279 277 275 269 267 263 258 250 236 236 234 231 233 230 241 257 239 239 279 273 262 219 247 246 202 122 72 243 222 222 201
324 322 313 311 309 304 299 301 304 304 299 295 283 270 267 287 287 279 281 280 280 274 269 268 267 265 272 272 267 249 238 240 246 241 231 230 231 248 225 235 264 270 240 233 250 267 265 56 192 189 248 129
323 316 311 307 299 293 285 287 287 288 288 282 274 262 273 271 271 273 281 292 289 279 270 269 281 281 276 275 273 267 254 251 238 234 228 234 226 232 236 214 244 255 260 259 258 257 265 282 156 109 143 199